Details From GMMI - MOGADOR INTL
To GCRR - Lanzarote
Flight Number -
Tags generated
Created
Modified
Stats Distance 251 nm / 466 km
Max Altitude 20,700 ft / 6,309 m
Waypoints 4
Social Downloads 1
Likes 0
Share VATSIM

Download

Looking for another format? Having issues loading an existing format? Contact us
Advertisement - Login to hide

Notes

Basic altitude profile: - Ascent Rate: 500ft/min - Ascent Speed: 110kts - Cruise Altitude: 8000ft - Cruise Speed: 145kts - Descent Rate: 500ft/min - Descent Speed: 120kts Options: - Use NATs: yes - Use PACOTS: yes - Use low airways: yes - Use high airways: no

Route

GMMI NISUR G5 SONSO GCRR

ID Type Via Altitude Latitude Longitude Leg Dist Tot Dist Heading (true) Name
O GMMI APT - 0 ft / 0 m 31.39709˚ -9.68204˚ - 0 nm - MOGADOR INTL
NISUR FIX - 8,700 ft / 2,652 m 31.17889˚ -10.08333˚ 24 nm 24 nm 238° / 237° -
SONSO FIX G5 (AWY-LO) 20,700 ft / 6,309 m 30.01222˚ -12.10194˚ 125 nm 150 nm 237° / 236° -
O GCRR APT - 0 ft / 0 m 28.94547˚ -13.60522˚ 101 nm 251 nm 231° / 230° Lanzarote

Altitude Profile

Advertisement - Login to hide

Weather


0- 5 10 15 20 25 30 35+ Temperature / ° C

Clouds and Precipitation
Forecast for 2018-05-24 18:00 UTC. Updated 30 minutes ago

Ground ~20,000 ft ~40,000 ft Winds

GMMI

Details ICAO GMMI (ESU)
Name MOGADOR INTL
Region Morocco
Timezone Africa/Casablanca (UTC+0.0)
Stats Elevation 384 ft / 117 m (AMSL)
Location 31.397091° -9.682044°
Runways 1
Magnetic Variation 2.480° W

METAR

GMMI 241700Z 26010KT 8000 BKN030 21/13 Q1015 NOSIG

Decode

TAF

Not found

Departure Runways

ID Width Length Bearing (true) Bearing (mag) Surface Threshold Offset Overrun Length
16 148 ft / 45 m 6,868 ft / 2,093 m 158.80° 161.28° Asphalt 0 ft / 0 m 0 ft / 0 m
34 148 ft / 45 m 6,868 ft / 2,093 m 338.80° 341.28° Asphalt 0 ft / 0 m 0 ft / 0 m

GCRR

Details ICAO GCRR (ACE)
Name Lanzarote
Region Canary Islands
Timezone Atlantic/Canary (UTC+1.0)
Stats Elevation 0 ft / 0 m (AMSL)
Location 28.945466° -13.605223°
Runways 1
Magnetic Variation 3.926° W

METAR

GCRR 241730Z 33013KT 9999 SCT040 21/13 Q1017

Decode

TAF

TAF GCRR 241400Z 2415/2515 31013KT 9999 SCT035 TX25/2514Z TN16/2505Z TEMPO 2415/2418 31015G25KT BECMG 2500/2502 01009KT

Decode

Destination Runways

ID Width Length Bearing (true) Bearing (mag) Surface Threshold Offset Overrun Length
03 148 ft / 45 m 7,893 ft / 2,406 m 26.90° 30.83° Asphalt 197 ft / 60 m 197 ft / 60 m
21 148 ft / 45 m 7,893 ft / 2,406 m 206.91° 210.84° Asphalt 197 ft / 60 m 197 ft / 60 m

Approach Navaids

Runway Type Ident Frequency Range Bearing (true) Bearing (mag) Slope Elevation
03 Localiser IRR 109.10 MHz 18 nm / 33 km 26.90° 30.83° - 47 ft / 14 m (AMSL)
03 Glidescope IRR 109.10 MHz 10 nm / 19 km 26.90° 30.83° 3.00° 0 ft / 0 m (AMSL)
03 DME IRR 109.10 MHz 18 nm / 33 km - - - 36 ft / 11 m (AMSL)